Gastonia, NC

4:27 AM EST on January 26, 2020 (GMT -0500)
Gastonia Municipal

Weather History for KAKH - November, 2019

Change the Weather History Date:

Saturday, November 23, 2019

  Actual Average (KCLT) Record (KCLT)
Temperature  
Mean Temperature 54 °F -  
Max Temperature 59 °F 58 °F 78 °F (1900)
Min Temperature 48 °F 37 °F 18 °F (1880)
Degree Days  
Heating Degree Days 12    
Growing Degree Days 4 (Base 50)    
Moisture  
Dew Point 48 °F    
Average Humidity 87    
Maximum Humidity 94    
Minimum Humidity 75    
Precipitation  
Precipitation 1.42 in - - ()
Sea Level Pressure  
Sea Level Pressure 29.82 in    
Wind  
Wind Speed 4 mph ()    
Max Wind Speed 10 mph    
Max Gust Speed 20 mph    
Visibility 4.5 miles    
Events Rain    
Averages and records for this station are not official NWS values.
T = Trace of Precipitation, MM = Missing Value Source: Averaged Metar Reports

Daily Weather History Graph

Daily Weather History Graph

Search for Another Location

Airport or City:

Astronomy

Nov. 23, 2019 Rise Set
Actual Time 7:07 AM EST 5:14 PM EST
Civil Twilight 6:39 AM EST 5:42 PM EST
Nautical Twilight 6:08 AM EST 6:13 PM EST
Astronomical Twilight 5:38 AM EST 6:43 PM EST
Moon 3:32 AM EST (11/23) 3:37 PM EST (11/23)
Length of Visible Light 11h 02m
Length of Day
10h 07m
Waning Crescent, 11% of the Moon is Illuminated
Nov 23
Waning Crescent
Nov 26
New
Dec 4
First Quarter
Dec 12
Full
Dec 18
Last Quarter

Hourly Weather History & Observations

Time (EST) Temp. Dew Point Humidity Pressure Visibility Wind Dir Wind Speed Gust Speed Precip Events Conditions
12:54 AM 59.0 °F 51.1 °F 75% 29.99 in 10.0 mi Calm Calm - N/A   Overcast
2:54 AM 57.0 °F 51.1 °F 81% 29.98 in 9.0 mi Calm Calm - N/A   Overcast
3:54 AM 57.9 °F 51.1 °F 78% 29.98 in 9.0 mi Calm Calm - N/A   Overcast
4:27 AM 57.0 °F 52.0 °F 83% 29.98 in 9.0 mi Calm Calm - N/A   Overcast
5:54 AM 57.0 °F 53.1 °F 87% 29.96 in 3.0 mi ENE 4.6 mph - 0.00 in Rain Light Rain
6:09 AM 57.0 °F 53.1 °F 87% 29.97 in 2.5 mi ENE 4.6 mph - 0.00 in Rain Light Rain
6:31 AM 55.9 °F 53.1 °F 90% 29.97 in 2.0 mi ENE 5.8 mph - 0.02 in Rain Light Rain
6:33 AM 55.9 °F 53.1 °F 90% 29.97 in 1.8 mi ENE 6.9 mph - 0.02 in Rain Light Rain
6:35 AM 55.9 °F 53.1 °F 90% 29.97 in 1.8 mi ENE 6.9 mph - 0.02 in Rain Light Rain
6:51 AM 55.4 °F 53.6 °F 94% 29.97 in 2.5 mi ENE 4.6 mph - 0.03 in Rain Light Rain
6:54 AM 55.9 °F 53.1 °F 90% 29.97 in 2.5 mi ENE 3.5 mph - 0.03 in Rain Light Rain
7:10 AM 55.9 °F 53.1 °F 90% 29.96 in 1.5 mi East 6.9 mph - 0.01 in Rain Light Rain
7:25 AM 55.9 °F 53.1 °F 90% 29.96 in 2.5 mi ENE 6.9 mph - 0.02 in Rain Light Rain
7:54 AM 55.9 °F 52.0 °F 87% 29.95 in 2.5 mi ENE 8.1 mph - 0.04 in Rain Light Rain
8:30 AM 54.0 °F 50.0 °F 86% 29.97 in 1.0 mi ENE 8.1 mph - 0.01 in Rain Rain
8:54 AM 54.0 °F 50.0 °F 86% 29.97 in 1.2 mi NE 6.9 mph - 0.05 in Rain Rain
9:05 AM 53.1 °F 50.0 °F 89% 29.98 in 1.2 mi NE 5.8 mph - 0.04 in Rain Rain
9:36 AM 53.1 °F 48.9 °F 86% 29.99 in 3.0 mi NNE 9.2 mph - 0.11 in Rain Rain
9:54 AM 52.0 °F 48.0 °F 86% 29.98 in 2.0 mi NE 10.4 mph - 0.15 in Rain Rain
10:28 AM 52.0 °F 48.0 °F 86% 29.97 in 2.5 mi NE 8.1 mph - 0.07 in Rain Rain
10:40 AM 51.1 °F 46.9 °F 86% 29.97 in 1.8 mi NE 8.1 mph - 0.12 in Rain Heavy Rain
10:54 AM 51.1 °F 46.9 °F 86% 29.97 in 2.5 mi NE 6.9 mph - 0.15 in Rain Rain
11:42 AM 51.1 °F 46.9 °F 86% 29.93 in 4.0 mi NE 6.9 mph - 0.07 in Rain Light Rain
11:54 AM 51.1 °F 48.0 °F 89% 29.92 in 5.0 mi NE 8.1 mph - 0.08 in Rain Light Rain
12:54 PM 51.1 °F 48.0 °F 89% 29.89 in 5.0 mi NNE 5.8 mph - 0.03 in Rain Light Rain
1:54 PM 51.1 °F 46.9 °F 86% 29.85 in 7.0 mi North 6.9 mph - 0.04 in Rain Light Rain
3:05 PM 51.1 °F 46.9 °F 86% 29.79 in 2.0 mi NNE 10.4 mph - 0.02 in Rain Light Rain
3:54 PM 51.1 °F 46.9 °F 86% 29.78 in 4.0 mi NE 6.9 mph - 0.05 in Rain Light Rain
4:11 PM 50.0 °F 46.9 °F 89% 29.75 in 2.0 mi NE 9.2 mph - 0.02 in Rain Rain
4:44 PM 51.1 °F 46.9 °F 86% 29.74 in 3.0 mi NNE 4.6 mph - 0.10 in Rain Heavy Rain
4:54 PM 51.1 °F 46.9 °F 86% 29.72 in 2.0 mi ENE 6.9 mph - 0.15 in Rain Heavy Rain
5:15 PM 51.1 °F 48.0 °F 89% 29.70 in 5.0 mi NNE 3.5 mph - 0.03 in Rain Light Rain
5:40 PM 51.1 °F 48.0 °F 89% 29.67 in 2.5 mi NE 4.6 mph - 0.08 in Rain Rain
5:49 PM 51.8 °F 48.2 °F 88% 29.66 in 4.0 mi NNE 8.1 mph - 0.09 in Rain Light Rain
5:54 PM 51.1 °F 48.0 °F 89% 29.66 in 4.0 mi NNE 9.2 mph - 0.10 in Rain Light Rain
6:16 PM 52.0 °F 48.0 °F 86% 29.63 in 2.5 mi NNE 6.9 mph - 0.12 in Rain Rain
6:54 PM 51.1 °F 46.9 °F 86% 29.67 in 2.0 mi Variable 6.9 mph 18.4 mph 0.24 in Rain Heavy Rain
7:02 PM 50.0 °F 46.0 °F 86% 29.68 in 1.2 mi NW 8.1 mph 19.6 mph 0.12 in Rain Heavy Rain
7:17 PM 48.9 °F 45.0 °F 86% 29.66 in 3.0 mi North 5.8 mph - 0.23 in Rain Light Rain
7:54 PM 48.9 °F 45.0 °F 86% 29.66 in 5.0 mi Variable 4.6 mph - 0.26 in Rain Light Rain
8:01 PM 48.9 °F 45.0 °F 86% 29.66 in 4.0 mi Variable 3.5 mph - 0.02 in Rain Rain
8:12 PM 48.9 °F 45.0 °F 86% 29.65 in 4.0 mi Calm Calm - 0.04 in Rain Light Rain
8:54 PM 48.9 °F 45.0 °F 86% 29.66 in 10.0 mi NNW 3.5 mph - 0.04 in   Overcast
9:10 PM 48.9 °F 45.0 °F 86% 29.64 in 10.0 mi Calm Calm - N/A   Overcast
9:54 PM 48.9 °F 45.0 °F 86% 29.62 in 10.0 mi SSE 3.5 mph - 0.01 in   Overcast
10:18 PM 48.9 °F 45.0 °F 86% 29.63 in 10.0 mi Calm Calm - N/A   Overcast
10:45 PM 48.9 °F 45.0 °F 86% 29.63 in 7.0 mi Calm Calm - N/A   Overcast
10:54 PM 48.9 °F 45.0 °F 86% 29.62 in 10.0 mi Calm Calm - N/A   Overcast
11:12 PM 48.9 °F 45.0 °F 86% 29.62 in 10.0 mi Calm Calm - N/A   Overcast
11:54 PM 48.9 °F 45.0 °F 86% 29.63 in 10.0 mi Calm Calm - N/A   Overcast